{"data":{"norad_id":53806,"intl_designator":"2022-111AK","name":"STARLINK-4768","alt_names":[],"object_type":"PAYLOAD","status":"ACTIVE","operator":null,"country":"US","launch_date":"2022-09-11","launch_site_code":"AFETR","launch_vehicle":null,"mission":null,"orbit_class":"UNKNOWN","rcs_meters":null,"size_class":null,"mass_kg":null,"dimensions":null,"purposes":["comms"],"wikipedia_slug":null,"has_3d_model":false,"image_url":null,"decayed_at":null,"tle_current":{"epoch":"2026-05-25T00:42:44.015040Z","epoch_age_seconds":79402,"freshness":"FRESH","line1":"1 53806U 22111AK  26145.02967610  .00002125  00000+0  15162-3 0  9995","line2":"2 53806  53.2142 266.2599 0001642  88.2371 271.8809 15.08819059205550","mean_motion":15.08819059,"eccentricity":0.0001642,"inclination_deg":53.2142,"raan_deg":266.2599,"arg_perigee_deg":88.2371,"mean_anomaly_deg":271.8809,"bstar":0.00015162,"rev_number":20555,"period_min":95.43887926193,"perigee_km":538.67147149369,"apogee_km":540.94332443398,"semimajor_km":6917.9443979638,"source":"CELESTRAK","updated_at":"2026-05-25T13:38:17.567973Z"}}}